Regional Weather Roundup
Issued by NWS Albany, NY

Home | Current Version | Previous Version | Text Only | Print | Product List | Glossary On
Versions: 1 2 3 4 5 6 7 8 9 10 11 12 13 14 15 16 17 18 19 20 21 22 23 24 25 26 27
000
ASUS41 KALY 300210
RWRALY

NEW YORK STATE HOURLY WEATHER ROUNDUP
NATIONAL WEATHER SERVICE ALBANY NY
1000 PM EDT WED MAR 29 2017

NOTE: "FAIR" INDICATES FEW OR NO CLOUDS BELOW 12,000 FEET WITH NO
SIGNIFICANT WEATHER AND/OR NO OBSTRUCTIONS TO VISIBILITY.

NYZ032-033-038>043-046>054-057>066-NYZ062>081-082-084-300300-
EAST


CITY           SKY/WX    TMP DP  RH WIND       PRES   REMARKS
ALBANY         PTCLDY    37  20  50 NW8       30.25S WCI  31
GLENS FALLS    CLEAR     37  20  50 NW7       30.24S WCI  32
POUGHKEEPSIE   CLEAR     40  21  46 N10       30.23R WCI  33
NEWBURGH       CLEAR     41  25  52 NE9G23    30.23R
MONTGOMERY     PTCLDY    39  26  59 N7        30.22R WCI  34
WHITE PLAINS   CLEAR     42  20  41 N14G20    30.20R
ISLIP          PTCLDY    44  27  51 N8        30.19R
NEW YORK CITY  CLEAR     48  24  39 N14G21    30.20R
CENTRAL PARK   CLEAR     47  23  38 NE15G21   30.23R
$$

NYZ005>009-017-018-044>046-055-056-300300-
CENTRAL


CITY           SKY/WX    TMP DP  RH WIND       PRES   REMARKS
FULTON         CLOUDY    32  26  78 CALM      30.31R
SYRACUSE       MOCLDY    36  25  64 NW5       30.30S WCI  32
ROME           CLEAR     34  23  64 NW3       30.31R
ELMIRA         CLOUDY    36  24  62 N3        30.28R
BINGHAMTON     CLEAR     33  22  63 N9        30.24R WCI  25
MONTICELLO     CLOUDY    34  21  60 NW10      30.22S WCI  26
$$

NYZ026>034-041>043-087-300300-
NORTH


CITY           SKY/WX    TMP DP  RH WIND       PRES   REMARKS
WATERTOWN      CLOUDY    34  23  64 N7        30.31R WCI  28
FORT DRUM      NOT AVBL
MASSENA        CLOUDY    38  22  52 N6        30.33R WCI  33
SARANAC LAKE   CLOUDY    32  20  61 N8        30.22R WCI  25
PLATTSBURGH    CLOUDY    38  22  52 NW10      30.27R WCI  31
$$

NYZ001>004-010>016-019>021-085-300300-
WEST


CITY           SKY/WX    TMP DP  RH WIND       PRES   REMARKS
NIAGARA FALLS  CLOUDY    42  28  57 E5        30.28F
BUFFALO        CLOUDY    41  28  60 E9        30.28F
DUNKIRK        CLOUDY    36  32  85 CALM      30.27F
JAMESTOWN      CLOUDY    39  27  60 NE7       30.22F WCI  34
WELLSVILLE     CLOUDY    36  25  64 NE5       30.24S WCI  32
ROCHESTER      CLOUDY    41  26  55 E7        30.30F
PENN YAN       PTCLDY    36  25  64 NE3       30.29S
$$

             KEY
       WCI = WIND CHILL INDEX
       VSB = VISIBILITY
       HX  = HEAT INDEX
$$




USA.gov is the U.S. government's official web portal to all federal, state and local government web resources and services.